Location: Doverdale
(52.2833°N, 2.2000°W)
Time: 03:33:14
(UTC+00:00)

Cosmos 1953 - Pass Details

Date: 29 October 2020
Orbit: 540 x 556 km, 82.5° (Epoch: 24 November)

Event Time Altitude Azimuth Distance (km) Brightness Sun altitude
Rises 17:35:58 0° 217° (SW) 2,691 6.7 -8.4°
Reaches altitude 10° 17:38:20 10° 229° (SW) 1,805 6.0 -8.7°
Maximum altitude 17:41:49 29° 290° (WNW) 1,016 4.4 -9.2°
Drops below altitude 10° 17:45:21 10° 352° (N) 1,822 5.0 -9.8°
Sets 17:47:45 0° 4° (N) 2,723 5.7 -10.1°
